Wind_Speed
47 45 44 42 40 39 37 33 31 33 32 31 32 30 30 28 27 26 23 23 23 21 21 22 21 20 21 22 24 24 26 25 22 18 19 17 19 21 22 24 24 24 24 26 28 30 33 35 36
54 52 47 45 42 44 40 37 36 33 33 31 28 27 26 25 25 22 19 22 22 21 21 20 20 22 23 24 25 26 27 27 24 20 22 22 23 24 26 28 28 28 28 30 31 33 36 39 41
62 56 53 46 43 44 40 39 37 33 31 28 23 22 22 21 23 22 20 22 22 23 22 21 22 24 26 27 27 27 27 29 28 25 25 26 27 29 30 31 30 31 31 32 35 36 36 37 38
61 64 56 50 48 48 42 37 36 31 29 27 25 23 22 21 21 19 19 23 24 25 25 25 26 26 26 27 28 28 29 30 31 29 28 30 31 33 36 34 34 34 34 37 37 38 38 38 38
67 62 60 52 53 51 42 39 37 33 32 30 27 23 22 21 21 20 21 24 25 25 25 26 26 26 27 27 28 30 31 32 32 31 31 33 34 35 36 36 36 38 39 40 39 40 39 38 38
69 65 57 53 52 54 47 41 40 38 35 33 30 28 26 23 25 25 25 27 27 28 28 28 28 28 28 29 30 31 32 33 33 34 33 35 36 37 37 37 39 40 42 43 41 41 41 41 41
74 69 61 57 57 54 54 47 45 42 37 37 36 33 33 32 33 35 33 32 30 30 30 30 31 31 30 31 32 33 35 35 36 36 36 36 38 39 39 41 42 42 44 44 42 41 41 40 42
80 74 66 63 61 59 60 53 49 46 40 38 40 39 36 37 37 38 36 33 33 33 32 32 32 33 33 34 34 34 34 37 38 39 41 41 42 42 43 42 42 43 45 43 43 44 44 43 42
86 79 71 64 67 64 67 58 53 49 48 45 43 42 39 39 41 40 39 35 34 34 34 34 34 36 37 36 36 36 37 39 41 42 44 45 45 44 44 43 43 44 44 44 46 44 43 46 48
91 81 75 73 71 70 70 62 57 53 53 49 47 45 43 43 42 41 41 39 36 35 36 36 35 37 37 38 38 40 41 42 43 45 46 47 48 45 45 42 43 43 44 44 45 47 50 51 53
97 85 82 78 79 77 72 67 59 58 53 51 50 47 47 47 45 43 42 40 38 39 39 39 40 40 40 41 41 44 45 44 46 45 47 48 48 45 43 40 42 43 44 45 48 51 53 54 56
103 92 88 85 84 83 77 72 66 58 55 54 51 49 48 47 46 45 45 43 41 41 43 43 44 43 44 44 46 48 47 48 46 46 48 47 47 45 41 42 42 44 47 50 52 54 56 58 60
105 98 96 92 91 88 81 77 68 63 57 55 55 55 51 51 51 48 49 47 46 45 46 46 46 46 47 48 49 50 49 49 47 48 48 46 46 43 40 43 44 47 50 51 55 58 60 62 64
106 102 100 98 97 93 85 80 71 63 62 59 55 55 54 54 54 52 50 50 50 50 50 49 50 51 51 52 52 51 51 50 47 47 46 46 44 42 42 44 48 50 52 56 59 63 65 67 68
109 105 104 101 99 93 88 81 72 68 66 67 62 56 54 53 53 51 51 51 51 50 50 49 50 51 53 53 51 51 50 48 46 46 46 47 44 43 45 48 51 54 57 61 64 67 70 72 74
109 110 107 100 99 95 87 82 76 68 68 69 66 60 60 58 56 54 52 51 51 49 48 50 52 52 52 50 49 49 47 47 47 47 48 46 46 47 50 54 56 60 62 66 68 71 74 75 77
113 109 107 103 99 95 87 81 79 75 70 69 65 60 58 57 57 55 52 51 51 50 49 51 51 49 48 47 47 48 47 47 48 49 48 48 49 52 56 58 60 63 66 69 72 75 77 79 82
113 110 108 105 96 95 86 82 77 76 72 66 64 59 56 54 54 51 50 51 51 49 49 49 48 48 47 46 46 47 47 48 49 48 50 51 53 56 58 62 65 68 70 73 76 79 80 85 87
120 119 111 107 101 93 88 82 81 79 73 65 62 61 59 56 52 52 50 48 48 48 48 47 48 47 46 47 47 47 48 49 50 51 52 54 57 60 63 66 69 73 75 78 79 81 85 87 93
110 120 114 107 104 98 93 88 85 80 77 71 66 61 60 57 54 51 49 48 48 47 48 47 46 46 47 48 48 49 51 52 53 55 57 59 62 64 67 71 74 77 79 81 83 87 90 92 84
103 112 115 108 103 102 98 90 85 81 76 70 66 62 60 59 54 51 48 49 47 46 47 47 48 48 48 50 51 53 55 57 59 61 63 65 68 70 73 77 79 81 82 84 87 91 95 84 63
95 102 118 114 104 96 95 90 82 77 73 68 66 63 60 57 53 50 50 48 47 47 47 49 50 51 53 55 57 59 60 62 64 66 69 71 74 76 78 79 81 84 86 89 92 96 80 64 50
89 99 110 116 107 96 89 90 84 77 71 67 64 61 56 54 52 53 52 48 47 49 50 52 54 56 58 60 62 64 66 68 69 71 74 76 79 81 82 84 86 88 90 93 96 78 63 51 49
81 91 102 112 110 99 88 83 83 77 70 67 63 59 55 55 54 51 50 51 52 52 53 56 58 59 62 64 67 69 70 73 74 77 80 82 84 85 86 87 89 91 94 93 76 61 53 52 52
75 94 100 106 106 95 86 78 79 78 72 65 62 58 56 54 52 53 53 54 54 55 58 59 61 64 66 69 71 74 76 78 80 82 85 86 88 88 89 91 94 96 88 71 61 57 56 55 56
74 82 92 90 92 90 82 77 74 71 68 65 63 59 56 54 54 54 55 56 57 59 61 63 66 69 71 73 76 78 82 84 86 88 89 90 90 91 93 96 93 79 68 62 62 62 62 62 64
73 80 87 88 89 89 80 73 70 69 67 65 62 59 57 55 55 57 57 59 61 62 65 68 71 74 76 79 82 84 86 89 91 92 93 94 95 96 96 86 71 71 68 69 70 70 72 72 73
64 74 80 84 89 86 79 72 67 67 67 64 61 58 57 57 58 59 61 62 65 68 71 73 77 79 82 84 87 89 91 93 94 95 95 96 94 86 77 78 78 77 76 77 77 78 79 79 79
58 73 77 77 81 84 80 73 66 66 66 63 61 60 59 59 60 62 65 68 71 73 75 77 81 84 86 88 91 92 93 96 96 94 92 84 82 82 84 84 85 85 84 83 83 83 84 84 86
57 67 72 73 76 77 73 69 66 65 66 65 64 63 63 63 65 67 69 72 73 75 78 82 84 86 87 88 89 93 95 92 89 88 89 90 91 92 93 93 94 93 94 94 93 94 93 93 93
Wind_Direction
235 239 238 236 239 236 238 242 243 246 248 250 251 251 252 253 258 259 265 272 274 277 280 283 286 289 295 298 301 304 309 309 308 304 305 307 309 313 314 313 311 312 309 313 309 306 302 297 293
242 239 240 234 237 240 237 241 247 248 245 246 242 243 244 249 254 258 266 269 274 277 279 280 284 288 292 295 299 301 304 307 302 300 299 302 304 307 309 310 309 310 308 309 306 307 303 293 291
234 240 240 239 237 235 236 238 243 241 238 230 226 230 238 244 253 260 263 266 272 274 275 279 283 288 291 294 298 299 302 303 301 297 295 299 302 302 308 307 306 305 307 308 311 309 304 300 293
238 236 238 238 236 236 233 228 233 234 222 224 225 229 240 249 255 263 271 273 272 274 277 280 284 289 292 296 300 299 302 303 304 302 296 296 298 301 305 306 303 304 307 309 310 309 305 302 298
239 236 234 235 232 231 225 219 230 226 223 227 227 225 238 247 256 262 269 275 277 279 282 286 288 290 293 297 298 298 299 301 300 300 297 299 301 304 303 304 303 303 308 307 306 306 306 301 297
238 237 233 229 227 227 222 216 226 227 225 231 232 234 237 247 255 262 269 276 279 282 284 287 288 291 295 296 298 300 301 301 300 300 304 302 303 302 301 303 303 303 308 306 304 305 304 303 303
238 236 230 230 228 229 226 214 226 231 227 232 237 240 245 252 257 263 270 275 280 283 285 288 289 293 295 296 298 300 302 302 301 302 304 303 304 304 303 302 304 301 305 302 302 305 303 301 301
238 235 231 230 234 233 234 219 223 229 228 236 241 241 246 253 258 263 267 271 278 283 285 286 288 290 293 297 299 301 302 302 303 304 303 303 303 303 304 302 303 299 303 302 301 302 300 300 301
236 235 232 231 237 235 235 225 226 227 230 234 240 243 245 252 257 262 266 270 275 279 282 282 285 289 291 294 297 298 300 302 303 304 302 302 302 302 302 299 297 297 302 300 301 302 302 303 304
234 235 232 230 233 231 235 231 226 228 232 234 239 242 246 251 256 261 266 270 274 277 279 282 285 289 291 292 294 296 297 299 300 302 301 300 301 300 302 296 297 299 302 301 302 306 310 311 311
233 231 232 230 231 232 235 235 230 232 236 238 238 238 245 249 254 259 264 268 271 274 277 281 284 286 286 288 291 293 295 298 299 298 298 297 298 298 300 295 297 300 299 300 306 312 313 314 315
232 229 229 231 231 232 233 236 232 233 235 237 240 243 243 246 251 257 263 266 270 273 276 279 282 284 285 286 289 292 293 296 296 296 296 294 298 298 294 296 300 302 302 306 312 313 315 315 315
230 227 228 228 232 231 231 233 232 232 235 237 241 243 243 246 250 255 261 266 270 273 276 277 280 282 284 286 288 290 292 295 295 294 292 293 296 295 293 297 300 302 304 312 314 315 314 313 312
229 228 226 226 230 230 230 232 231 233 234 238 237 240 244 248 252 254 260 264 268 272 274 276 278 281 282 284 286 288 292 292 292 291 291 292 292 290 294 297 301 302 305 310 312 314 313 312 312
227 227 227 225 227 229 227 229 231 233 235 238 239 240 244 248 252 256 259 264 267 270 273 276 279 281 282 284 285 287 289 288 289 291 291 291 290 290 294 296 299 302 306 308 310 311 312 311 310
225 225 227 225 225 228 227 228 228 230 234 238 240 243 245 249 253 257 260 263 265 268 272 276 278 279 281 282 284 285 285 287 289 290 290 290 290 293 296 297 300 304 307 307 309 310 311 310 309
225 224 225 226 225 226 226 226 227 231 233 236 239 242 246 250 253 255 258 261 265 268 271 274 276 277 280 282 283 285 286 288 289 290 290 291 293 295 296 299 301 303 305 306 308 309 309 309 308
223 224 223 224 224 224 225 226 228 229 232 236 239 242 245 247 249 251 255 259 264 267 269 271 273 276 279 280 282 285 287 288 289 291 293 295 295 295 297 299 302 302 305 306 307 308 308 309 309
219 220 220 222 223 221 222 225 227 229 232 236 239 242 244 247 249 251 253 258 261 263 267 270 274 276 277 279 282 285 286 288 290 292 294 294 295 295 298 299 301 303 305 306 307 308 309 309 308
216 217 219 219 220 219 220 223 224 227 232 236 239 244 246 248 247 248 250 253 255 260 266 270 273 275 277 280 283 285 287 289 291 291 292 293 293 297 298 300 302 304 306 307 307 309 310 310 309
214 214 216 218 219 219 220 222 225 227 230 235 237 241 244 245 245 247 250 252 255 259 266 271 273 275 278 280 284 286 288 290 291 292 294 295 297 298 300 302 305 306 306 306 307 309 309 306 306
211 210 212 217 218 219 220 220 223 227 229 232 237 241 241 242 242 245 249 253 256 261 265 270 273 276 279 282 284 286 289 290 292 293 295 297 298 300 301 304 304 305 306 306 308 308 306 304 302
209 206 210 215 217 218 217 218 221 223 226 232 234 234 236 239 241 244 249 254 258 261 265 270 274 277 280 283 286 288 289 291 291 294 296 298 299 301 303 304 305 305 306 307 308 308 305 299 297
205 203 206 212 214 216 217 217 220 223 225 229 233 233 235 237 242 247 253 254 256 261 267 271 274 277 280 283 285 287 289 291 294 296 297 299 300 301 302 303 304 305 306 308 307 304 298 297 296
199 202 204 208 211 213 216 217 220 223 226 228 230 232 235 240 246 251 256 258 261 265 268 271 274 277 280 282 286 289 292 293 294 295 297 299 300 301 302 303 304 304 306 304 301 299 296 294 293
198 198 203 207 209 212 215 215 218 222 223 225 230 231 235 241 248 254 258 262 264 267 270 273 275 278 282 285 288 290 290 292 294 296 298 299 300 301 302 303 303 303 303 299 296 295 294 293 293
195 193 199 201 203 209 213 214 216 218 220 224 229 233 237 242 248 253 258 262 265 270 273 275 278 281 284 286 287 289 292 293 294 296 298 300 301 301 301 302 301 302 298 297 296 295 293 291 292
193 190 195 197 201 206 209 212 216 219 222 225 230 236 240 244 248 253 258 262 266 269 273 276 279 283 284 286 289 290 292 294 296 297 298 298 299 300 300 299 299 298 297 295 293 292 291 290 289
189 187 192 194 200 205 209 212 216 219 223 227 232 236 241 246 250 255 260 264 268 272 275 279 281 283 286 289 291 293 293 294 296 296 297 298 295 294 293 292 292 291 290 289 287 286 286 286 286
184 186 190 194 198 202 206 208 214 220 225 229 234 238 243 249 254 258 263 267 271 275 278 281 284 287 289 291 291 292 294 295 295 294 293 292 292 292 291 290 288 287 287 285 285 285 283 280 279
Height
10841 10844 10848 10851 10855 10859 10863 10866 10868 10870 10871 10873 10875 10875 10875 10874 10874 10876 10876 10876 10876 10876 10876 10876 10875 10875 10874 10873 10872 10871 10869 10867 10866 10866 10865 10863 10862 10860 10859 10857 10855 10853 10851 10849 10847 10844 10842 10839 10837
10832 10836 10841 10844 10850 10853 10858 10859 10862 10865 10866 10867 10870 10871 10871 10870 10870 10872 10873 10872 10872 10872 10873 10873 10872 10872 10871 10870 10869 10867 10866 10864 10863 10862 10861 10859 10858 10856 10855 10853 10851 10849 10847 10844 10842 10839 10835 10831 10829
10824 10826 10833 10840 10846 10846 10851 10852 10855 10859 10860 10863 10866 10867 10868 10867 10866 10869 10871 10869 10870 10869 10870 10870 10869 10868 10867 10866 10866 10864 10862 10860 10858 10858 10857 10855 10853 10851 10850 10848 10846 10843 10841 10839 10836 10832 10828 10824 10821
10812 10818 10825 10835 10838 10836 10843 10847 10850 10853 10856 10858 10861 10863 10865 10864 10863 10866 10867 10865 10866 10866 10866 10866 10866 10865 10864 10863 10862 10860 10859 10856 10854 10854 10852 10850 10848 10846 10844 10842 10839 10837 10835 10832 10829 10825 10821 10817 10813
10800 10809 10819 10828 10829 10829 10836 10840 10844 10848 10851 10853 10856 10859 10860 10861 10859 10862 10863 10862 10863 10862 10862 10862 10862 10861 10860 10859 10858 10856 10854 10852 10850 10848 10847 10845 10843 10841 10838 10835 10832 10830 10828 10824 10821 10818 10814 10810 10807
10788 10800 10814 10823 10820 10818 10828 10835 10837 10842 10845 10848 10851 10854 10856 10857 10855 10857 10859 10858 10859 10858 10859 10858 10858 10857 10856 10854 10853 10851 10850 10847 10845 10843 10842 10839 10837 10834 10832 10829 10826 10822 10820 10817 10813 10809 10806 10802 10798
10776 10787 10803 10810 10807 10812 10817 10826 10829 10834 10840 10843 10845 10849 10851 10851 10851 10852 10854 10853 10854 10854 10854 10854 10853 10852 10851 10849 10848 10846 10844 10842 10840 10838 10836 10833 10830 10828 10825 10822 10819 10815 10812 10809 10805 10802 10798 10794 10790
10760 10775 10790 10800 10801 10804 10803 10818 10822 10828 10835 10836 10837 10841 10845 10845 10845 10846 10848 10849 10849 10849 10849 10849 10848 10847 10845 10844 10843 10841 10839 10837 10834 10832 10829 10827 10824 10820 10817 10814 10810 10807 10803 10800 10797 10794 10790 10786 10782
10743 10761 10780 10790 10791 10790 10789 10809 10814 10821 10825 10828 10830 10835 10838 10838 10839 10840 10841 10843 10844 10844 10844 10844 10843 10841 10840 10839 10838 10836 10833 10831 10828 10825 10822 10818 10816 10813 10810 10806 10803 10800 10796 10792 10789 10785 10782 10777 10772
10727 10753 10767 10773 10776 10772 10779 10797 10807 10813 10816 10821 10824 10828 10831 10831 10833 10834 10834 10836 10838 10839 10839 10838 10838 10836 10835 10833 10832 10830 10827 10824 10821 10818 10814 10810 10807 10805 10802 10798 10795 10791 10787 10783 10779 10774 10770 10766 10759
10713 10740 10750 10758 10760 10759 10773 10786 10800 10806 10811 10811 10814 10821 10824 10825 10827 10827 10828 10830 10831 10832 10833 10832 10831 10831 10829 10827 10825 10823 10821 10818 10814 10811 10807 10803 10800 10797 10793 10790 10787 10784 10779 10775 10770 10765 10760 10755 10749
10692 10721 10732 10742 10744 10750 10763 10773 10790 10800 10801 10802 10807 10813 10816 10819 10820 10821 10822 10824 10825 10826 10826 10825 10824 10823 10821 10820 10818 10815 10813 10811 10807 10803 10800 10796 10793 10790 10786 10782 10779 10774 10770 10766 10761 10756 10750 10744 10738
10673 10699 10712 10722 10727 10737 10753 10763 10778 10790 10793 10794 10799 10802 10808 10811 10812 10815 10815 10818 10818 10819 10818 10817 10816 10815 10813 10812 10810 10807 10804 10802 10799 10795 10791 10788 10785 10782 10779 10775 10771 10766 10761 10756 10751 10745 10740 10734 10728
10658 10676 10688 10702 10707 10723 10741 10754 10768 10781 10784 10784 10788 10794 10799 10802 10805 10807 10809 10810 10811 10810 10810 10809 10808 10806 10805 10803 10801 10798 10795 10793 10790 10786 10783 10780 10777 10774 10770 10767 10762 10757 10752 10747 10741 10735 10729 10722 10716
10637 10652 10664 10684 10693 10708 10728 10743 10762 10770 10773 10774 10780 10787 10791 10794 10796 10799 10801 10802 10803 10802 10801 10801 10800 10799 10797 10794 10792 10789 10786 10782 10779 10777 10773 10771 10768 10765 10762 10758 10753 10748 10743 10737 10731 10724 10717 10711 10704
10614 10629 10644 10670 10683 10699 10719 10738 10751 10757 10761 10764 10771 10778 10783 10786 10789 10790 10792 10793 10794 10794 10794 10793 10791 10790 10788 10785 10783 10780 10776 10774 10770 10767 10765 10761 10759 10756 10753 10748 10743 10739 10732 10726 10719 10713 10707 10699 10691
10586 10613 10635 10652 10671 10686 10710 10726 10739 10745 10750 10756 10763 10770 10774 10778 10779 10782 10783 10783 10785 10787 10786 10784 10783 10782 10780 10777 10773 10770 10768 10765 10763 10758 10756 10753 10750 10747 10742 10737 10733 10727 10721 10714 10708 10700 10693 10687 10678
10578 10601 10623 10639 10661 10679 10701 10717 10728 10732 10740 10748 10756 10761 10765 10768 10770 10774 10775 10775 10775 10776 10777 10777 10775 10773 10771 10769 10766 10763 10759 10756 10753 10750 10747 10744 10740 10735 10731 10726 10720 10714 10708 10702 10694 10687 10680 10670 10661
10548 10573 10601 10624 10646 10667 10686 10701 10714 10719 10731 10742 10748 10750 10755 10759 10765 10766 10768 10768 10766 10765 10766 10767 10766 10764 10762 10759 10757 10754 10750 10747 10743 10739 10736 10732 10728 10722 10718 10713 10706 10700 10694 10687 10680 10673 10665 10658 10644
10530 10556 10586 10606 10628 10651 10668 10682 10695 10710 10721 10731 10738 10744 10747 10753 10755 10757 10760 10761 10759 10757 10757 10757 10757 10755 10753 10750 10748 10744 10741 10737 10732 10728 10723 10719 10715 10711 10705 10699 10693 10686 10679 10672 10664 10656 10648 10640 10629
10516 10547 10578 10595 10614 10634 10654 10672 10689 10703 10714 10724 10730 10733 10740 10743 10746 10748 10750 10750 10752 10752 10750 10748 10745 10744 10743 10740 10737 10734 10729 10724 10720 10714 10710 10706 10701 10697 10691 10685 10678 10672 10664 10657 10650 10641 10632 10621 10616
10511 10539 10561 10575 10600 10628 10646 10669 10683 10697 10705 10714 10721 10726 10731 10735 10737 10739 10740 10742 10744 10744 10742 10739 10736 10734 10731 10729 10725 10720 10717 10713 10708 10704 10699 10694 10688 10683 10678 10672 10665 10657 10649 10641 10633 10625 10614 10606 10602
10498 10522 10552 10568 10594 10616 10638 10657 10674 10684 10697 10706 10710 10717 10723 10727 10727 10729 10732 10735 10736 10734 10732 10729 10727 10723 10720 10716 10712 10708 10704 10699 10695 10691 10686 10681 10675 10669 10663 10656 10648 10640 10632 10624 10616 10607 10600 10594 10591
10491 10521 10537 10556 10580 10605 10630 10653 10667 10680 10688 10694 10703 10711 10714 10715 10718 10723 10726 10725 10724 10724 10722 10719 10716 10713 10709 10704 10699 10694 10690 10686 10683 10677 10672 10667 10660 10654 10647 10640 10633 10625 10616 10607 10599 10594 10589 10584 10580
10488 10500 10525 10545 10570 10608 10630 10647 10660 10672 10681 10690 10695 10702 10704 10708 10713 10714 10713 10714 10714 10712 10710 10707 10705 10701 10696 10691 10687 10683 10679 10674 10668 10662 10656 10650 10644 10637 10630 10622 10614 10606 10599 10591 10586 10581 10577 10573 10569
10482 10508 10531 10559 10589 10611 10624 10641 10652 10665 10674 10679 10686 10694 10698 10703 10704 10704 10704 10703 10702 10700 10698 10695 10691 10687 10684 10679 10675 10671 10664 10658 10653 10647 10640 10634 10627 10620 10613 10605 10596 10588 10582 10578 10573 10568 10564 10560 10555
10480 10506 10531 10555 10584 10600 10621 10637 10647 10657 10665 10672 10679 10687 10692 10695 10696 10695 10694 10693 10690 10689 10686 10681 10678 10675 10671 10667 10660 10655 10650 10643 10636 10630 10623 10616 10609 10600 10593 10585 10578 10573 10567 10563 10558 10552 10547 10543 10538
10487 10512 10535 10556 10574 10596 10615 10630 10644 10653 10658 10667 10674 10680 10684 10686 10686 10686 10685 10684 10681 10677 10674 10671 10667 10663 10658 10652 10646 10641 10633 10626 10619 10612 10604 10596 10588 10579 10572 10566 10560 10555 10549 10544 10539 10533 10528 10521 10516
10500 10518 10537 10557 10577 10593 10611 10627 10638 10647 10654 10661 10667 10671 10674 10676 10676 10676 10674 10671 10669 10667 10663 10659 10654 10648 10643 10637 10631 10624 10616 10607 10600 10591 10583 10574 10565 10557 10549 10541 10535 10529 10524 10519 10514 10508 10502 10496 10490
10508 10526 10543 10559 10576 10594 10611 10624 10634 10642 10648 10654 10659 10663 10665 10666 10666 10664 10663 10661 10658 10655 10652 10646 10640 10635 10629 10622 10614 10605 10596 10586 10577 10568 10559 10550 10542 10533 10525 10518 10510 10504 10497 10492 10486 10481 10474 10465 10459